Date,TemperatureHighF,TemperatureAvgF,TemperatureLowF,DewpointHighF,DewpointAvgF,DewpointLowF,HumidityHigh,HumidityAvg,HumidityLow,PressureMaxIn,PressureMinIn,WindSpeedMaxMPH,WindSpeedAvgMPH,GustSpeedMaxMPH,PrecipitationSumIn
2013-1-1,79.8,66.7,56.0,61.4,58.4,53.6,94,77,50,30.14,29.97,8,2,17,0.00
2013-1-2,79.6,66.6,58.1,68.1,61.8,56.1,96,86,59,30.02,29.92,8,2,15,0.00
2013-1-3,80.9,69.9,59.8,68.6,64.2,59.2,99,84,54,30.06,29.95,12,2,19,0.01
2013-1-4,70.9,67.4,63.1,68.4,64.8,61.0,97,92,87,30.18,30.03,7,3,12,0.30
2013-1-5,78.3,68.4,62.3,65.8,63.1,60.3,97,84,64,30.20,30.09,7,3,15,0.00
2013-1-6,81.8,71.9,66.1,71.2,67.2,64.8,99,86,62,30.12,29.99,7,2,13,0.00
2013-1-7,75.3,70.0,67.4,68.1,66.7,63.7,96,89,73,30.11,30.01,7,3,14,0.14
2013-1-8,84.1,72.6,64.7,72.6,67.4,62.5,99,85,55,30.13,30.02,6,2,13,0.03
2013-1-9,85.3,75.9,70.9,71.9,68.2,63.0,97,79,49,30.19,30.09,9,3,19,0.00
2013-1-10,83.4,73.7,66.1,69.1,64.2,59.5,96,74,45,30.22,30.10,11,3,23,0.00
2013-1-11,83.0,71.6,63.9,69.4,64.3,59.0,98,80,46,30.19,30.05,8,2,17,0.08
2013-1-12,83.2,72.6,65.6,68.3,65.1,62.3,95,79,51,30.11,29.99,7,2,14,0.00
2013-1-13,82.4,72.1,63.9,67.5,64.0,60.6,95,77,51,30.06,29.98,7,2,15,0.00
2013-1-14,82.0,70.2,61.2,64.0,61.4,58.3,94,76,47,30.11,30.03,7,1,16,0.00
2013-1-15,82.2,70.1,59.9,67.4,62.1,58.3,96,78,51,30.07,29.97,5,1,12,0.00
2013-1-16,82.2,70.5,60.4,66.2,62.0,58.4,96,77,47,30.03,29.93,8,2,16,0.00
2013-1-17,79.2,57.0,62.1,69.1,36.1,-99.9,96,69,65,30.06,29.92,13,4,22,0.00
2013-1-18,67.4,17.5,54.8,53.2,-58.8,-99.9,64,17,56,30.22,30.05,7,1,14,0.00
2013-1-19,74.9,16.5,69.9,63.4,-63.1,-99.9,76,16,65,30.17,30.03,8,1,16,0.00
2013-1-20,77.2,16.2,71.3,66.0,-64.2,-99.9,80,15,63,30.09,29.95,7,0,12,0.01
2013-1-21,78.1,19.5,69.4,66.4,-56.1,-99.9,84,20,64,30.02,29.93,8,1,15,0.00
2013-1-22,69.8,16.7,65.3,51.8,-62.8,-99.9,59,14,47,30.19,29.98,9,2,18,0.00
2013-1-23,73.9,25.7,65.3,47.4,-48.4,-99.9,50,13,28,30.26,30.16,7,2,14,0.00
2013-1-24,75.8,22.4,68.9,45.6,-57.1,-99.9,41,10,24,30.25,30.14,8,1,13,0.00
2013-1-25,78.3,20.0,70.3,52.6,-59.6,-99.9,51,12,37,30.23,30.11,5,0,11,0.00
2013-1-26,79.2,21.8,70.4,50.6,-57.8,-99.9,49,10,29,30.20,30.09,7,1,11,0.00
2013-1-27,79.8,26.4,58.1,56.2,-43.8,-99.9,87,20,38,30.21,30.13,7,2,16,0.00
2013-1-28,82.2,25.3,76.1,62.6,-48.9,-99.9,63,17,48,30.24,30.12,9,2,19,0.00
2013-1-29,84.9,25.2,77.4,66.8,-49.0,-99.9,70,18,48,30.17,30.02,9,2,18,0.00
2013-1-30,82.0,33.0,65.6,67.5,-29.4,-99.9,92,29,54,30.03,29.89,13,3,23,0.00
2013-1-31,72.0,22.7,61.2,59.7,-48.7,-99.9,93,21,37,30.15,29.86,8,2,15,0.00
2013-2-1,69.9,25.9,47.0,42.2,-43.3,-99.9,61,17,23,30.25,30.14,9,3,17,0.00
2013-2-2,76.0,29.3,48.9,50.5,-37.8,-99.9,72,19,32,30.20,30.05,7,1,14,0.00
2013-2-3,73.7,25.5,50.2,50.9,-46.1,-99.9,70,15,22,30.14,30.01,10,2,18,0.00
2013-2-4,74.0,27.3,46.8,49.1,-42.6,-99.9,95,17,20,30.08,29.96,7,1,14,0.00
2013-2-5,80.7,30.8,51.3,56.1,-36.2,-99.9,77,20,38,30.02,29.93,6,1,12,0.00
2013-2-6,82.0,31.6,58.1,63.0,-33.8,-99.9,87,23,45,30.04,29.94,6,1,12,0.00
2013-2-7,81.2,39.8,62.0,64.1,-15.7,-99.9,94,32,50,30.00,29.86,11,3,21,0.00
2013-2-8,85.1,30.4,71.6,68.5,-37.3,-99.9,90,23,32,29.96,29.83,8,2,15,0.00
2013-2-9,79.6,29.6,58.3,60.7,-35.0,-99.9,95,26,46,30.10,29.99,8,2,18,0.00
2013-2-10,81.4,32.5,61.5,62.3,-31.2,-99.9,92,26,44,30.17,30.06,8,2,18,0.00
2013-2-11,82.2,32.0,64.5,65.2,-32.7,-99.9,91,26,51,30.13,30.01,9,2,16,0.00
2013-2-12,81.2,31.2,66.0,68.4,-32.9,-99.9,96,29,62,30.05,29.90,13,3,22,0.00
2013-2-13,81.6,31.6,74.4,71.9,-32.2,-99.9,92,30,65,29.93,29.83,14,4,23,0.00
2013-2-14,71.3,10.1,64.7,69.6,-75.1,-99.9,96,15,91,29.96,29.83,4,0,7,0.09
2013-2-15,67.8,14.5,65.8,62.6,-64.7,-99.9,88,18,77,29.99,29.88,5,0,9,0.00
2013-2-16,68.8,26.9,56.9,52.4,-37.2,-99.9,77,25,50,30.03,29.85,14,3,27,0.00
2013-2-17,59.0,21.8,43.1,26.0,-49.4,-99.9,45,13,23,30.26,30.03,11,3,20,0.00
2013-2-18,72.0,25.5,46.4,46.9,-43.6,-99.9,52,18,38,30.26,30.14,10,2,18,0.00
2013-2-19,78.3,30.3,58.1,61.4,-34.9,-99.9,87,25,53,30.14,30.02,7,2,17,0.00
2013-2-20,82.8,31.5,59.8,65.8,-34.8,-99.9,98,23,38,30.05,29.92,5,1,13,0.00
2013-2-21,83.2,30.9,63.7,66.7,-34.5,-99.9,97,26,50,30.03,29.93,7,1,13,0.00
2013-2-22,84.3,32.6,66.3,70.2,-31.4,-99.9,97,28,54,30.02,29.92,10,2,17,0.00
2013-2-23,83.2,33.1,71.1,71.2,-29.1,-99.9,95,31,62,29.97,29.85,14,4,23,0.00
2013-2-24,84.7,34.1,72.7,72.4,-28.9,-99.9,96,28,51,29.92,29.84,9,2,17,0.00
2013-2-25,83.0,33.6,68.1,71.2,-28.6,-99.9,97,30,58,29.86,29.73,12,3,21,0.00
2013-2-26,82.0,26.5,75.3,71.9,-43.0,-99.9,86,25,68,29.83,29.68,19,4,33,0.00
2013-2-27,76.7,25.3,66.4,63.1,-43.3,-99.9,89,24,58,29.91,29.80,6,1,12,0.00
2013-2-28,75.1,35.4,63.5,56.4,-19.6,-99.9,76,33,47,29.96,29.85,7,2,16,0.02
2013-3-1,64.2,60.4,56.3,55.7,48.0,42.1,77,64,50,29.95,29.85,8,4,16,0.06
2013-3-2,60.1,55.5,51.7,44.4,41.1,37.9,70,59,46,30.00,29.92,11,4,21,0.00
2013-3-3,60.1,51.1,41.8,47.0,41.3,33.3,93,70,48,30.10,29.91,12,4,23,0.05
2013-3-4,71.1,52.6,37.8,45.3,37.6,32.5,88,61,26,30.16,30.05,7,2,14,0.00
2013-3-5,74.7,58.7,42.3,57.3,49.1,38.7,92,73,42,30.11,30.01,10,3,20,0.00
2013-3-6,70.8,61.5,50.8,62.0,49.0,35.5,93,67,33,30.07,29.93,11,5,20,0.05
2013-3-7,70.6,54.7,43.9,46.4,39.1,32.3,77,58,27,30.15,30.04,9,4,16,0.00
2013-3-8,79.4,59.4,43.5,50.4,44.6,37.6,92,63,23,30.16,30.03,8,3,15,0.06
2013-3-9,77.7,63.4,48.9,51.8,47.8,39.4,92,62,27,30.14,30.03,6,2,14,0.00
2013-3-10,80.3,66.5,55.9,54.7,52.1,49.9,82,62,37,30.10,29.96,10,4,21,0.00
2013-3-11,78.8,68.6,59.3,60.9,57.8,54.7,90,70,48,30.03,29.85,10,4,20,0.00
2013-3-12,74.0,66.7,58.0,67.7,61.9,52.9,90,85,76,29.97,29.82,16,5,28,0.01
2013-3-13,78.1,63.0,53.1,52.7,44.3,35.2,89,57,22,30.10,29.96,10,5,17,0.00
2013-3-14,73.7,58.9,49.5,45.2,34.8,25.2,84,47,17,30.17,30.06,13,4,22,0.00
2013-3-15,75.3,58.9,44.9,45.8,38.6,27.2,88,53,21,30.22,30.07,10,3,17,0.06
2013-3-16,77.7,60.8,47.3,53.2,45.7,37.8,91,62,32,30.13,30.00,9,2,17,0.00
2013-3-17,77.7,64.3,51.7,58.6,53.9,47.7,90,71,48,30.07,29.94,9,2,18,0.00
2013-3-18,78.5,68.2,61.0,70.8,63.1,55.8,94,84,65,29.99,29.85,10,3,16,0.18
2013-3-19,83.2,71.2,65.8,67.1,64.8,63.2,94,82,53,29.94,29.77,12,3,28,0.02
2013-3-20,79.2,67.6,62.0,64.8,61.4,56.7,96,83,47,29.94,29.74,10,2,20,0.14
2013-3-21,77.4,64.6,55.7,61.9,49.0,30.0,95,63,18,29.91,29.79,9,4,17,0.01
2013-3-22,79.0,65.7,48.9,69.0,55.3,37.9,90,70,53,29.91,29.82,10,3,21,0.09
2013-3-23,83.4,74.7,67.4,73.7,67.9,65.5,98,81,56,29.90,29.75,15,5,25,0.96
2013-3-24,81.4,75.2,69.1,72.9,70.5,65.7,93,86,71,29.80,29.62,17,7,31,0.07
2013-3-25,76.5,68.6,56.0,73.0,51.1,29.5,93,59,21,29.98,29.69,11,5,20,0.00
2013-3-26,64.8,55.8,48.3,46.1,38.8,30.3,78,55,35,30.17,29.97,12,6,23,0.00
2013-3-27,67.8,53.2,42.5,44.3,36.0,28.6,75,55,27,30.23,30.12,9,4,18,0.00
2013-3-28,74.9,56.6,43.6,47.2,37.9,26.0,84,56,17,30.23,30.09,7,3,14,0.00
2013-3-29,78.1,61.7,47.3,48.0,42.4,35.2,88,55,22,30.25,30.11,8,2,17,0.06
2013-3-30,78.8,64.8,52.2,54.3,50.7,45.3,89,63,36,30.19,30.05,8,2,14,0.00
2013-3-31,81.1,67.9,55.6,60.4,56.2,51.1,88,68,42,30.12,29.96,10,3,19,0.00
2013-4-1,82.4,71.6,61.8,67.8,63.3,58.5,94,77,52,29.99,29.91,13,4,23,0.00
2013-4-2,85.7,73.5,66.0,67.4,64.5,61.6,97,76,47,30.03,29.93,7,2,14,0.00
2013-4-3,88.0,75.0,65.2,68.5,64.6,59.9,92,72,40,30.00,29.87,10,3,20,0.00
2013-4-4,80.9,70.8,65.5,70.8,66.5,62.4,96,87,70,29.96,29.80,14,3,27,0.35
2013-4-5,74.6,68.8,61.2,66.9,62.3,55.8,97,81,57,29.94,29.76,15,5,25,0.11
2013-4-6,61.8,60.7,58.4,57.7,56.2,54.1,88,85,82,29.97,29.90,7,4,15,0.01
2013-4-7,83.6,71.3,59.3,62.6,59.9,55.7,92,70,42,30.06,29.96,7,3,16,0.02
2013-4-8,85.7,73.9,62.1,62.4,58.4,52.6,89,62,33,30.05,29.96,8,2,15,0.00
2013-4-9,85.3,73.6,63.7,66.4,61.7,57.5,91,69,40,30.07,29.98,8,3,17,0.00
2013-4-10,88.8,75.6,65.3,70.8,66.1,62.9,93,74,46,30.03,29.88,10,3,20,0.00
2013-4-11,88.0,77.6,70.9,72.6,70.1,68.3,93,79,54,29.93,29.78,11,4,21,0.00
2013-4-12,85.9,78.6,73.5,74.7,71.3,68.8,96,80,59,29.87,29.80,13,5,22,0.01
2013-4-13,89.3,79.6,73.0,72.7,68.0,65.1,88,69,48,29.91,29.79,10,3,22,0.00
2013-4-14,88.6,78.4,69.1,73.3,69.7,66.6,92,76,57,29.90,29.77,12,4,22,0.00
2013-4-15,91.8,78.1,66.3,72.7,67.0,61.1,89,70,45,30.00,29.85,7,3,15,0.00
2013-4-16,91.8,78.4,69.6,72.0,69.0,65.4,95,75,44,30.06,29.95,11,2,22,0.00
2013-4-17,87.6,77.4,68.8,68.8,65.4,59.8,92,69,43,30.06,29.93,8,3,14,0.00
2013-4-18,90.7,77.6,71.1,74.7,67.8,64.1,93,73,45,29.99,29.86,11,2,19,0.06
2013-4-19,88.4,77.9,69.9,73.1,69.8,66.8,96,78,52,29.95,29.86,11,3,19,0.01
2013-4-20,88.0,77.0,68.9,74.0,69.5,67.1,94,79,53,30.05,29.89,11,2,19,0.01
2013-4-21,87.0,73.0,63.4,69.2,66.2,62.2,97,81,50,30.05,29.91,10,3,20,0.00
2013-4-22,83.0,73.5,67.6,70.3,67.3,65.3,96,82,61,30.02,29.87,7,2,15,0.08
2013-4-23,86.7,74.4,66.4,67.5,64.1,60.4,93,73,43,30.02,29.91,9,4,20,0.03
2013-4-24,88.4,74.2,62.6,66.7,62.5,57.3,92,70,35,30.07,29.97,7,2,15,0.02
2013-4-25,87.8,74.9,64.5,67.3,61.7,55.1,92,67,34,30.13,30.01,6,2,15,0.00
2013-4-26,86.7,74.8,62.3,64.2,61.8,59.3,92,66,45,30.16,30.06,9,2,18,0.00
2013-4-27,86.3,75.5,66.8,66.5,62.4,58.8,94,66,40,30.14,29.99,9,3,16,0.00
2013-4-28,87.4,75.7,65.3,68.6,62.2,59.3,88,65,40,30.04,29.88,9,3,18,0.00
2013-4-29,89.5,74.2,65.6,69.4,64.6,60.0,88,73,43,29.96,29.85,9,2,22,0.00
2013-4-30,87.0,74.3,68.1,72.2,68.3,65.9,95,83,56,29.91,29.83,10,2,21,0.00
2013-5-1,79.6,70.9,67.6,72.7,68.4,65.1,97,92,76,29.93,29.78,12,2,34,0.00
2013-5-2,74.4,69.3,67.1,69.9,67.8,65.2,98,95,81,29.89,29.74,5,0,11,0.00
2013-5-3,85.7,73.8,64.2,69.2,66.2,62.8,98,79,47,29.78,29.63,9,3,19,0.00
2013-5-4,81.6,74.6,69.1,68.5,66.3,63.2,90,76,61,29.75,29.62,13,6,25,0.00
2013-5-5,81.1,72.2,65.3,67.4,56.5,44.8,88,61,31,29.90,29.73,11,5,20,0.00
2013-5-6,80.7,69.9,59.5,64.2,59.7,55.8,92,72,46,29.95,29.86,8,3,18,0.00
2013-5-7,78.5,68.4,57.3,60.2,57.9,54.1,91,71,51,30.00,29.92,11,3,22,0.00
2013-5-8,82.6,70.7,59.3,61.9,58.4,50.1,93,68,35,30.07,29.99,8,2,16,0.00
2013-5-9,89.3,73.2,59.6,64.1,58.6,49.7,94,65,28,30.08,29.99,5,2,11,0.00
2013-5-10,89.7,77.3,64.5,71.0,67.0,62.1,93,73,48,30.06,29.92,10,2,16,0.00
2013-5-11,89.3,78.7,69.8,73.4,69.9,63.7,93,76,47,30.00,29.92,11,3,20,0.00
2013-5-12,87.4,79.2,72.5,75.5,71.6,67.1,96,79,59,29.98,29.85,11,3,21,0.00
2013-5-13,87.6,77.5,69.6,71.6,65.4,50.8,90,68,48,30.05,29.93,7,3,15,0.00
2013-5-14,87.0,73.3,61.8,56.9,54.1,48.7,81,54,27,30.11,30.02,9,4,17,0.00
2013-5-15,85.7,73.9,59.9,61.2,57.9,54.4,89,60,35,30.12,30.00,8,3,15,0.00
2013-5-16,88.2,76.1,63.5,62.9,59.0,51.7,88,59,32,30.05,29.92,7,2,14,0.00
2013-5-17,91.2,78.1,65.6,69.0,62.8,55.2,91,63,31,30.01,29.94,8,2,13,0.04
2013-5-18,93.2,80.4,69.4,71.6,66.2,59.7,95,66,34,30.03,29.93,7,2,15,0.00
2013-5-19,90.1,77.4,70.8,71.8,68.6,65.8,95,77,46,30.02,29.91,11,1,22,0.04
2013-5-20,91.8,76.0,69.6,73.2,69.3,63.5,96,82,40,30.00,29.90,11,2,29,0.00
2013-5-21,91.2,75.0,68.3,72.8,68.2,65.5,95,81,46,29.94,29.81,11,2,19,0.00
2013-5-22,89.9,77.0,68.3,73.2,69.0,66.0,95,78,50,29.88,29.81,8,2,17,0.00
2013-5-23,90.1,77.9,69.4,73.2,69.2,64.9,96,77,47,29.95,29.84,7,2,14,0.00
2013-5-24,93.6,81.0,72.5,72.7,68.1,61.4,93,68,36,30.01,29.90,10,2,22,0.00
2013-5-25,89.5,78.9,68.6,71.3,65.8,61.4,91,67,42,30.08,29.97,8,4,20,0.00
2013-5-26,88.4,76.9,66.6,65.6,62.0,55.1,85,62,33,30.11,30.02,7,4,16,0.00
2013-5-27,88.6,77.7,67.3,69.2,65.5,61.0,87,68,42,30.09,29.96,10,4,20,0.00
2013-5-28,86.1,77.4,71.5,73.7,70.3,68.2,92,80,57,30.05,29.94,10,4,19,0.00
2013-5-29,85.7,76.3,71.1,71.4,69.8,66.8,94,81,58,30.02,29.93,13,4,28,0.00
2013-5-30,85.7,77.2,71.5,74.1,70.4,68.7,96,80,63,29.99,29.90,11,5,22,0.00
2013-5-31,85.9,78.6,72.8,74.4,71.1,69.1,92,79,62,29.98,29.91,9,4,17,0.00
2013-6-1,87.4,77.0,73.3,77.0,72.6,70.8,95,87,60,29.96,29.88,10,2,20,0.00
2013-6-2,89.0,79.3,72.0,74.5,72.2,69.3,97,81,53,29.93,29.84,10,2,19,0.00
2013-6-3,83.4,77.7,74.2,74.3,72.6,70.8,93,85,69,29.94,29.85,12,2,22,0.00
2013-6-4,82.0,76.4,72.3,74.3,72.3,69.7,94,87,74,29.97,29.88,6,2,16,0.00
2013-6-5,79.0,76.9,75.8,76.0,74.0,72.2,96,91,81,29.94,29.79,7,2,16,0.00
2013-6-6,81.4,75.6,71.5,77.4,73.1,68.5,98,92,81,29.81,29.68,16,6,33,0.19
2013-6-7,83.6,78.3,74.7,76.3,73.0,69.5,97,84,65,29.91,29.74,7,2,14,0.01
2013-6-8,88.4,80.1,74.9,76.1,73.5,70.0,93,81,61,30.03,29.88,10,3,19,0.00
2013-6-9,75.6,75.2,74.4,74.2,73.1,71.8,96,93,90,30.03,29.97,3,1,7,0.00
2013-6-10,92.1,81.3,74.9,76.0,73.2,69.8,94,78,49,30.01,29.92,10,2,18,0.00
2013-6-11,94.7,80.4,71.8,77.4,73.5,68.1,95,81,45,30.00,29.90,11,1,23,0.13
2013-6-12,94.0,78.0,71.8,77.2,72.5,69.6,96,85,49,30.00,29.93,14,1,31,0.27
2013-6-13,91.8,77.6,69.9,75.6,71.9,68.7,98,84,50,29.99,29.85,14,1,26,0.47
2013-6-14,89.0,80.8,73.5,77.4,72.5,68.9,98,78,53,29.90,29.81,8,3,17,0.00
2013-6-15,92.5,82.1,73.7,75.6,72.6,69.4,95,75,48,29.97,29.86,7,2,12,0.00
2013-6-16,91.8,82.4,74.6,76.1,73.8,70.9,93,76,51,30.02,29.94,7,2,13,0.81
2013-6-17,94.3,83.0,74.4,77.2,73.2,65.1,97,75,39,30.00,29.91,10,1,17,0.01
2013-6-18,92.9,82.5,74.7,77.8,74.0,67.7,96,77,52,30.00,29.89,12,2,23,0.29
2013-6-19,94.0,79.8,74.2,77.3,73.0,68.5,97,81,52,29.99,29.90,10,2,20,0.55
2013-6-20,89.5,77.5,72.8,75.6,71.9,68.7,92,83,59,30.02,29.95,10,1,20,0.00
2013-6-21,88.4,78.5,71.8,75.2,71.2,67.6,94,79,54,30.03,29.96,12,2,21,0.02
2013-6-22,93.4,82.3,72.1,74.5,70.3,64.5,94,70,39,30.03,29.94,6,2,12,0.00
2013-6-23,91.2,79.1,74.9,75.2,72.9,70.1,92,82,51,30.06,29.98,8,1,17,0.11
2013-6-24,91.6,81.7,74.0,74.5,72.2,69.0,93,75,50,30.09,29.99,9,2,17,0.00
2013-6-25,93.8,81.3,74.2,74.1,71.2,67.1,91,73,43,30.06,29.93,9,2,19,0.00
2013-6-26,89.5,77.4,72.5,75.8,72.6,70.0,94,86,59,30.01,29.93,9,1,18,0.75
2013-6-27,90.5,77.2,71.6,75.8,72.0,69.7,96,85,51,29.98,29.88,12,1,21,0.07
2013-6-28,89.3,80.6,73.3,75.2,72.9,69.6,96,79,58,29.92,29.79,9,2,18,0.00
2013-6-29,89.7,81.5,75.1,75.9,73.2,69.3,93,77,55,29.84,29.76,10,3,20,0.05
2013-6-30,88.0,79.8,74.0,77.4,74.1,71.6,95,84,63,29.84,29.76,13,4,30,0.68
2013-7-1,85.1,75.2,71.3,76.6,72.7,69.5,97,92,70,29.94,29.82,16,3,33,2.43
2013-7-2,85.5,76.2,72.3,77.9,73.7,69.8,98,92,72,30.02,29.90,11,1,22,1.74
2013-7-3,89.5,77.2,73.2,75.9,73.3,70.7,97,88,60,30.05,29.97,13,2,25,0.32
2013-7-4,87.8,77.8,72.3,76.7,73.3,71.0,97,87,62,30.07,29.98,9,2,19,0.79
2013-7-5,86.3,78.1,73.3,76.5,73.7,70.5,96,87,65,30.06,29.97,11,2,24,0.19
2013-7-6,91.4,82.0,75.1,75.4,73.0,68.6,95,76,50,30.03,29.93,9,3,16,0.00
2013-7-7,90.3,80.8,75.3,78.3,73.3,71.5,93,79,57,30.04,29.94,10,2,24,0.27
2013-7-8,91.0,80.9,74.7,75.6,72.6,68.6,94,78,50,30.07,29.99,7,2,17,0.01
2013-7-9,88.2,79.0,73.0,75.9,71.9,69.5,94,80,57,30.08,29.98,14,2,27,0.31
2013-7-10,86.5,78.1,72.5,74.2,72.0,69.5,95,82,57,30.02,29.91,7,1,14,0.01
2013-7-11,87.6,78.8,73.9,75.4,72.8,69.8,95,83,59,29.97,29.86,4,1,10,0.03
2013-7-12,86.5,78.7,73.2,75.4,72.4,70.2,94,82,62,29.90,29.82,8,2,17,0.01
2013-7-13,84.9,75.7,73.0,75.9,72.8,71.3,96,91,67,29.92,29.84,10,1,20,2.22
2013-7-14,79.4,75.4,73.0,74.1,72.4,70.5,96,91,82,30.01,29.89,7,1,17,0.08
2013-7-15,89.0,76.7,72.0,75.0,71.9,69.9,97,86,57,30.02,29.94,8,1,15,1.02
2013-7-16,85.1,76.5,73.3,74.6,71.9,69.8,97,87,62,30.07,29.98,10,3,20,0.13
2013-7-17,85.5,78.0,73.7,74.6,71.8,66.6,95,82,61,30.06,29.96,10,3,21,0.00
2013-7-18,81.8,74.6,71.1,74.1,71.7,69.0,98,91,76,30.05,29.98,8,1,19,0.92
2013-7-19,89.0,77.3,70.9,76.6,72.7,70.2,98,87,57,30.06,29.96,7,2,18,0.81
2013-7-20,91.4,77.5,72.5,78.8,73.6,70.3,98,88,59,30.04,29.95,11,1,21,0.25
2013-7-21,88.8,79.9,73.9,79.0,74.8,72.2,97,85,63,30.07,29.97,8,1,15,0.02
2013-7-22,90.3,82.2,75.4,76.3,74.1,71.6,95,78,57,30.07,29.99,7,2,14,0.00
2013-7-23,90.7,82.6,76.3,77.5,74.1,69.9,96,77,53,30.04,29.91,7,2,15,0.00
2013-7-24,88.8,81.7,74.7,74.9,72.3,67.8,93,75,52,29.96,29.86,10,3,19,0.00
2013-7-25,88.0,81.8,77.6,75.7,73.6,72.5,86,77,64,29.95,29.84,8,3,17,0.00
2013-7-26,90.1,81.4,72.5,77.6,74.3,70.4,96,80,60,29.96,29.88,11,2,21,1.67
2013-7-27,91.0,81.2,76.8,77.8,74.4,70.4,92,81,56,29.94,29.85,9,1,18,0.31
2013-7-28,92.3,82.4,75.3,76.9,72.7,66.9,96,75,46,29.99,29.88,6,1,14,0.00
2013-7-29,94.7,79.8,72.7,75.6,72.7,69.2,96,81,45,30.07,29.95,13,1,29,0.71
2013-7-30,92.1,80.5,74.7,78.5,74.8,70.0,97,84,56,30.09,30.00,8,1,22,0.00
2013-7-31,91.8,80.4,76.3,77.2,74.3,71.9,95,83,55,30.05,29.93,12,1,27,0.01
2013-8-1,93.8,79.9,73.9,75.8,72.5,68.5,95,80,45,29.99,29.85,15,1,24,0.01
2013-8-2,90.3,80.1,73.9,75.7,73.2,68.8,95,81,51,30.00,29.86,12,2,19,0.81
2013-8-3,86.3,78.4,73.2,77.9,75.5,68.9,97,91,68,30.04,29.94,12,1,22,2.07
2013-8-4,91.4,82.7,76.7,79.8,76.0,73.9,98,82,58,30.03,29.93,8,2,18,0.00
2013-8-5,92.3,83.1,77.4,78.2,75.5,71.5,93,79,56,29.97,29.86,8,2,16,0.07
2013-8-6,93.6,81.6,76.8,78.1,75.1,71.3,95,82,57,29.91,29.83,10,1,18,0.03
2013-8-7,93.4,80.4,75.4,77.0,75.0,73.7,95,85,54,29.89,29.82,10,1,17,0.33
2013-8-8,92.1,80.4,75.6,76.8,74.6,70.3,97,84,54,29.94,29.85,11,2,21,0.26
2013-8-9,90.1,78.0,72.8,76.2,73.6,70.8,97,88,55,29.99,29.88,12,2,22,4.27
2013-8-10,93.4,82.6,73.7,76.6,73.0,69.5,96,75,47,30.03,29.94,7,2,16,0.00
2013-8-11,94.5,84.5,76.0,76.3,73.8,70.5,93,72,47,30.06,29.96,5,2,14,0.00
2013-8-12,92.7,83.6,74.9,74.9,71.7,65.7,93,70,42,30.05,29.93,7,2,14,0.00
2013-8-13,94.5,81.5,73.2,78.9,74.0,70.1,95,80,49,29.99,29.86,9,1,21,0.28
2013-8-14,94.3,82.5,74.7,76.9,73.5,66.9,97,76,43,29.95,29.83,5,1,11,0.00
2013-8-15,86.1,80.0,76.7,76.4,74.2,72.9,91,83,69,29.99,29.88,6,1,13,0.00
2013-8-16,94.0,83.9,76.7,77.5,74.1,71.4,91,74,49,29.98,29.87,7,2,17,0.00
2013-8-17,94.5,82.0,76.0,78.1,74.5,70.5,94,80,47,30.00,29.89,10,2,22,0.30
2013-8-18,91.6,81.4,76.0,77.5,74.8,71.8,96,82,55,30.02,29.91,8,2,17,0.27
2013-8-19,91.0,79.4,73.5,78.7,74.2,71.1,96,86,58,30.02,29.87,12,2,20,0.69
2013-8-20,90.5,79.9,73.7,77.0,73.7,71.0,96,82,56,29.99,29.91,8,2,17,0.00
2013-8-21,90.7,81.4,77.0,77.4,75.0,69.6,94,82,58,30.00,29.91,9,3,18,0.00
2013-8-22,92.1,79.4,74.0,77.5,74.5,70.1,96,86,55,29.99,29.89,12,2,22,0.95
2013-8-23,92.3,79.2,75.1,78.4,75.0,71.9,99,88,54,29.95,29.86,9,1,20,0.89
2013-8-24,93.8,80.9,74.7,78.0,74.2,69.5,97,83,47,30.06,29.91,10,2,15,1.01
2013-8-25,88.6,78.6,74.7,76.4,74.6,72.9,97,88,63,30.07,29.95,6,2,14,0.19
2013-8-26,90.5,78.6,73.9,76.4,74.1,70.2,96,87,55,30.05,29.93,10,2,18,0.23
2013-8-27,87.6,77.1,72.7,74.7,72.6,71.1,97,87,60,29.98,29.90,12,1,22,0.34
2013-8-28,89.0,78.4,73.3,74.9,72.0,66.6,96,82,49,29.97,29.90,12,2,20,0.00
2013-8-29,92.7,80.2,73.5,74.8,72.1,69.3,94,78,48,29.97,29.85,7,1,13,0.00
2013-8-30,88.6,79.3,74.7,75.4,73.1,70.6,95,82,58,29.93,29.83,9,1,18,0.07
2013-8-31,91.2,80.4,73.5,76.2,72.1,68.5,95,78,52,29.91,29.83,9,2,16,0.00
2013-9-1,88.6,77.9,72.3,78.2,73.3,70.8,96,87,65,29.92,29.85,10,1,20,1.47
2013-9-2,85.9,77.1,73.3,77.8,73.7,70.9,98,90,70,29.96,29.86,6,1,14,0.01
2013-9-3,88.8,79.7,73.2,76.2,73.5,71.9,97,83,60,29.96,29.86,8,1,15,0.02
2013-9-4,90.1,78.4,75.1,76.6,74.2,70.9,95,88,58,30.00,29.88,12,1,24,0.17
2013-9-5,93.4,81.8,75.1,78.5,74.8,70.4,98,81,50,30.01,29.91,7,2,14,0.00
2013-9-6,93.8,82.5,74.2,77.4,74.0,70.2,94,78,47,29.97,29.83,18,2,34,0.10
2013-9-7,89.9,77.8,72.7,75.4,73.1,70.4,97,87,56,29.93,29.83,7,2,17,1.37
2013-9-8,91.0,79.3,72.1,75.9,72.5,68.9,98,82,49,29.88,29.77,8,1,13,0.00
2013-9-9,91.6,81.4,74.9,74.5,72.5,69.2,93,76,50,29.93,29.83,7,2,14,0.00
2013-9-10,89.5,80.2,74.7,77.5,72.6,70.2,93,78,56,29.97,29.89,9,3,22,0.07
2013-9-11,88.0,79.7,74.2,75.5,73.0,70.4,93,81,60,29.97,29.90,12,2,23,0.00
2013-9-12,89.5,78.4,73.5,75.2,73.2,69.9,97,85,58,29.95,29.80,11,1,23,0.84
2013-9-13,92.3,79.7,72.3,74.2,60.3,-99.9,99,74,51,29.84,29.73,5,1,11,0.01
2013-9-14,94.3,81.6,73.9,75.5,72.9,69.1,96,77,46,29.90,29.76,11,1,19,0.75
2013-9-15,91.4,79.0,75.6,78.4,73.9,68.9,97,86,57,29.99,29.86,13,2,24,0.01
2013-9-16,85.7,75.8,73.2,77.5,73.3,69.6,97,92,74,29.98,29.89,16,2,30,0.67
2013-9-17,84.5,76.4,73.3,76.8,73.6,71.8,98,91,72,29.96,29.85,9,2,19,0.04
2013-9-18,88.6,77.1,73.5,76.1,73.4,72.0,100,89,61,29.94,29.86,7,2,13,0.19
2013-9-19,87.2,79.1,72.7,76.2,73.4,71.5,98,84,62,29.95,29.87,10,2,18,0.00
2013-9-20,88.6,79.9,73.3,73.3,70.2,67.0,94,74,53,29.94,29.82,8,2,16,0.00
2013-9-21,91.6,79.5,71.5,72.9,70.2,67.6,93,75,48,29.86,29.70,5,1,12,0.00
2013-9-22,88.2,80.6,74.0,74.6,72.7,69.6,94,78,56,29.79,29.70,11,3,19,0.00
2013-9-23,80.7,77.3,74.7,78.0,75.4,73.6,98,94,87,29.91,29.77,10,1,21,4.11
2013-9-24,83.8,75.7,72.1,78.8,50.1,-99.9,99,83,76,29.89,29.81,14,1,24,1.37
2013-9-25,79.9,75.0,71.6,75.0,72.7,70.4,99,93,82,29.87,29.73,8,2,18,0.10
2013-9-26,89.7,80.6,74.0,79.7,75.4,72.2,98,85,59,29.80,29.73,10,3,21,0.12
2013-9-27,87.0,78.6,73.2,72.9,70.1,64.9,93,77,49,29.87,29.77,7,3,16,0.00
2013-9-28,88.4,78.5,72.1,72.9,70.3,68.4,93,77,52,29.91,29.82,9,3,19,0.00
2013-9-29,88.8,79.1,71.5,71.4,69.1,64.5,93,74,47,29.90,29.80,6,2,14,0.00
2013-9-30,90.3,79.3,71.6,72.9,69.9,64.2,94,76,43,29.93,29.81,7,1,15,0.37
2013-10-1,89.7,79.9,72.5,73.7,70.9,68.4,95,76,50,29.96,29.86,7,2,15,0.00
2013-10-2,88.4,79.4,73.5,73.0,70.8,67.3,91,76,52,29.97,29.87,9,3,17,0.00
2013-10-3,88.4,78.1,74.0,74.5,72.6,70.7,96,84,59,29.98,29.88,9,2,18,0.14
2013-10-4,88.4,79.2,73.3,74.4,71.3,66.0,97,79,50,29.99,29.90,5,1,11,0.01
2013-10-5,89.3,79.5,72.3,71.4,69.6,65.8,92,73,48,29.98,29.85,5,1,11,0.00
2013-10-6,89.7,78.8,71.3,73.5,70.6,68.3,95,77,53,29.91,29.79,6,1,12,0.00
2013-10-7,86.3,78.2,73.2,77.4,73.3,69.6,94,85,67,29.82,29.73,16,3,30,0.65
2013-10-8,86.3,78.5,73.5,73.7,70.6,67.9,93,78,58,29.86,29.76,8,3,18,0.00
2013-10-9,86.5,77.5,73.3,71.9,70.4,68.7,92,80,59,29.94,29.85,7,3,13,0.00
2013-10-10,87.8,77.3,68.8,69.6,67.9,65.3,92,74,48,29.97,29.87,6,3,11,0.00
2013-10-11,89.5,76.3,66.1,69.4,64.8,58.1,95,71,36,29.96,29.86,6,1,11,0.00
2013-10-12,87.8,76.3,67.6,68.9,66.3,64.1,94,73,47,29.97,29.89,6,1,15,0.00
2013-10-13,87.0,76.9,69.1,69.6,64.8,60.4,93,68,43,29.99,29.89,8,2,14,0.00
2013-10-14,87.4,77.0,68.1,67.9,65.0,60.6,91,69,41,29.97,29.83,6,2,12,0.00
2013-10-15,89.0,77.4,68.8,69.1,66.1,60.8,92,71,40,29.91,29.80,7,2,13,0.00
2013-10-16,89.7,76.7,69.3,71.2,68.6,64.3,96,78,45,29.89,29.81,8,2,14,0.00
2013-10-17,88.4,78.1,69.8,71.6,68.8,65.3,94,75,49,29.91,29.81,5,1,13,0.00
2013-10-18,90.3,79.3,71.3,72.6,69.8,65.6,93,74,46,29.91,29.81,5,0,11,0.00
2013-10-19,88.8,80.7,73.7,74.6,72.3,70.2,90,76,59,29.88,29.79,7,2,14,0.00
2013-10-20,92.1,81.0,74.4,76.0,72.7,69.6,96,78,49,29.88,29.79,5,1,11,0.00
2013-10-21,90.5,80.2,73.2,75.1,72.5,70.7,95,79,55,29.93,29.83,7,1,13,0.00
2013-10-22,88.2,79.8,73.2,76.1,73.0,69.6,95,81,57,29.90,29.76,11,3,21,0.10
2013-10-23,83.4,75.9,68.6,75.5,68.2,55.8,96,79,55,29.92,29.75,9,3,17,0.24
2013-10-24,74.9,69.3,65.8,62.3,57.5,51.1,80,66,58,30.07,29.91,8,4,16,0.00
2013-10-25,79.6,69.9,62.4,63.1,59.5,56.6,86,71,50,30.13,30.05,8,4,19,0.00
2013-10-26,83.8,70.3,61.5,62.8,58.2,50.9,88,68,34,30.11,29.99,7,3,14,0.00
2013-10-27,82.6,70.2,60.2,61.6,57.5,54.6,90,67,39,30.03,29.96,7,2,12,0.00
2013-10-28,84.5,72.5,62.0,64.8,61.5,57.9,91,71,41,30.09,30.00,8,3,14,0.00
2013-10-29,86.1,74.4,65.3,66.7,64.0,61.0,88,72,49,30.13,30.02,9,4,17,0.00
2013-10-30,86.3,74.9,67.1,67.1,64.1,58.8,92,72,41,30.13,29.99,9,3,17,0.00
2013-10-31,88.8,76.2,66.8,69.6,66.4,62.4,93,74,42,30.04,29.90,7,2,16,0.00
2013-11-1,86.3,75.4,67.4,72.2,68.2,65.2,95,80,52,29.94,29.82,11,2,19,0.00
2013-11-2,82.6,73.6,68.9,74.8,67.5,61.0,97,82,63,29.90,29.76,10,3,19,0.00
2013-11-3,79.6,69.8,62.4,61.8,53.0,42.7,88,59,28,30.00,29.88,11,5,23,0.00
2013-11-4,81.1,69.8,59.2,62.4,57.9,50.8,81,67,46,30.04,29.96,12,6,22,0.00
2013-11-5,83.8,74.1,66.3,69.1,66.0,62.3,90,77,59,30.02,29.94,11,5,26,0.00
2013-11-6,85.9,76.5,69.4,68.3,66.6,65.4,87,73,54,30.00,29.91,9,3,16,0.00
2013-11-7,84.0,74.0,66.8,69.4,66.6,65.0,95,79,55,29.97,29.87,7,2,13,0.00
2013-11-8,81.8,39.8,66.1,67.7,-11.8,-99.9,93,40,59,30.00,29.91,9,2,19,0.00
2013-11-9,80.3,13.2,77.7,69.2,-71.7,-99.9,73,12,68,30.05,29.97,9,1,23,0.00
2013-11-10,83.4,27.8,73.9,70.0,-42.6,-99.9,83,22,57,30.06,29.96,9,2,15,0.00
2013-11-11,86.1,32.5,69.1,68.1,-33.1,-99.9,92,25,45,30.06,29.96,10,2,17,0.00
2013-11-12,82.6,31.2,68.1,67.7,-34.3,-99.9,93,26,54,30.02,29.91,5,1,11,0.00
2013-11-13,70.6,21.5,65.5,57.9,-50.9,-99.9,73,21,61,30.17,29.96,15,3,28,0.00
2013-11-14,77.2,29.5,58.9,57.4,-36.6,-99.9,80,23,45,30.17,30.06,11,3,21,0.00
2013-11-15,80.1,25.3,72.0,66.7,-46.0,-99.9,74,22,63,30.08,29.94,8,2,16,0.00
2013-11-16,77.7,18.8,74.0,70.7,-58.5,-99.9,88,19,67,30.02,29.94,6,1,14,0.00
2013-11-17,87.4,31.3,72.5,70.8,-36.6,-99.9,92,23,48,29.99,29.90,8,1,16,0.00
2013-11-18,88.4,32.9,69.4,70.7,-31.4,-99.9,96,28,51,29.96,29.85,7,1,12,0.00
2013-11-19,85.7,31.8,72.0,72.0,-32.2,-99.9,96,30,58,29.88,29.78,8,1,15,0.00
2013-11-20,88.8,26.9,71.1,70.0,-45.3,-99.9,93,20,46,30.00,29.87,4,0,9,0.00
2013-11-21,86.1,28.9,75.3,71.9,-40.0,-99.9,88,24,59,30.08,29.97,8,1,13,0.00
2013-11-22,83.4,32.0,72.0,70.8,-32.9,-99.9,93,27,56,30.08,29.99,9,2,16,0.00
2013-11-23,84.9,31.3,66.9,68.7,-33.3,-99.9,88,27,55,30.03,29.90,6,1,15,0.00
2013-11-24,76.5,28.8,66.0,66.4,-34.8,-99.9,93,31,66,30.10,29.93,12,2,21,0.00
2013-11-25,77.4,28.3,65.5,62.7,-38.2,-99.9,79,25,57,30.12,29.97,10,3,22,0.00
2013-11-26,83.8,23.4,75.8,72.0,-50.8,-99.9,88,21,62,29.97,29.74,10,2,21,0.00